map of TTA home
Great Circle Mapper logo
TTA - Airport
Location
City:  Tan Tan, Morocco
Name:Tan Tan Airport
Old (Alt.):Plage Blanche Airport
ICAO:GMAT
IATA:TTA

Details
Type:Airport (Aerodrome, Airfield)
Use:Public/Civil, Military
Latitude:2826'53"N (28.448194)
Longitude:1109'41"W (-11.161346)
Datum:WGS 1984
Elevation:653 ft (199 m)
Variation:3.33W (WMM2015 magnetic declination)
0.11 annual change
Runways:1
Longest:6562 × 98 ft (2000 × 30 m), paved

Time
Time Zone:UTC+0 (DST+1)
Local Time:

Weather
METAR:GMAT 250800Z 02012KT 9999 OVC016 17/14 Q1014 NOSIG

Related Locations
Nearby:
Farthest:NLK: 12370 mi / 19908 km
Norfolk Island, NF

Find:

   beyond  
but within

Other Information
Maps:
NOTAMs:
Links:
Sources:

  
flag of Morocco   

Sectional Chart

Flight Planning
at skyvector.com

Satellite Image

Google Maps Satellite view

 

Copyright © 2004-2016 Karl L. Swartz. All rights reserved.
The Great Circle Mapper name and logo are trademarks of the Great Circle Mapper.
All other trademarks mentioned herein belong to their respective owners.
Please see credits for attibutions and further copyright information.

  Follow gcmap on Facebook Follow gcmap on Twitter Follow gcmap on Google+ GCmap on LinkedIn

hCard Microformat

Geo Microformat